,,PA_Meas_PMT16A,,PR_Meas_QMR101_102,,RH_Meas_QMH101,,SR_Meas_QMS101,,TA_Meas_QMH101,,GenWind,,GenWind,
time,status,PA,status,PR,status,RH,status,SR,status,TA,status,DirAvg,status,SpdAvg,
2011-01-21, 00:00:05,VALID,916.146,VALID,0,VALID,95.5748,VALID,0,VALID,20.5219,VALID,353,VALID,0.641016,
2011-01-21, 00:01:05,VALID,916.112,VALID,0,VALID,95.712,VALID,0,VALID,20.5204,VALID,353,VALID,0.561719,
2011-01-21, 00:02:05,VALID,916.121,VALID,0,VALID,95.7654,VALID,0,VALID,20.5609,VALID,353,VALID,0.509766,
2011-01-21, 00:03:05,VALID,916.136,VALID,0,VALID,95.7654,VALID,0,VALID,20.5804,VALID,353,VALID,0.785156,
2011-01-21, 00:04:05,VALID,916.152,VALID,0,VALID,95.7349,VALID,0,VALID,20.5789,VALID,353,VALID,0.836719,
2011-01-21, 00:05:05,VALID,916.14,VALID,0,VALID,95.6967,VALID,0,VALID,20.5804,VALID,353,VALID,0.907031,
2011-01-21, 00:06:05,VALID,916.19,VALID,0,VALID,95.6434,VALID,0,VALID,20.5804,VALID,353,VALID,0.722656,
2011-01-21, 00:07:05,VALID,916.191,VALID,0,VALID,95.5367,VALID,0,VALID,20.5399,VALID,353,VALID,0.660547,
2011-01-21, 00:08:05,VALID,916.158,VALID,0,VALID,95.5138,VALID,0,VALID,20.5414,VALID,353,VALID,0.816797,
2011-01-21, 00:09:05,VALID,916.193,VALID,0,VALID,95.5824,VALID,0,VALID,20.5204,VALID,353,VALID,0.364453,
2011-01-21, 00:10:05,VALID,916.174,VALID,0,VALID,95.5824,VALID,0,VALID,20.5414,VALID,353,VALID,0.516016,
2011-01-21, 00:11:05,VALID,916.175,VALID,0,VALID,95.6739,VALID,0,VALID,20.5414,VALID,353,VALID,0.489453,
2011-01-21, 00:12:05,VALID,916.152,VALID,0,VALID,95.7272,VALID,0,VALID,20.5609,VALID,353,VALID,0.34375,
2011-01-21, 00:13:05,VALID,916.161,VALID,0,VALID,95.7272,VALID,0,VALID,20.5609,VALID,353,VALID,0.447656,
2011-01-21, 00:14:05,VALID,916.184,VALID,0,VALID,95.6586,VALID,0,VALID,20.582,VALID,353,VALID,0.523047,
2011-01-21, 00:15:05,VALID,916.132,VALID,0,VALID,95.6357,VALID,0,VALID,20.5414,VALID,353,VALID,0.302734,
2011-01-21, 00:16:05,VALID,916.147,VALID,0,VALID,95.6129,VALID,0.107441,VALID,20.5399,VALID,353,VALID,0.130078,
2011-01-21, 00:17:05,VALID,916.149,VALID,0,VALID,95.6586,VALID,0.107441,VALID,20.4993,VALID,353,VALID,0.456641,
2011-01-21, 00:18:05,VALID,916.147,VALID,0,VALID,95.7044,VALID,0,VALID,20.5399,VALID,353,VALID,0.514453,
2011-01-21, 00:19:05,VALID,916.158,VALID,0,VALID,95.6967,VALID,0.107441,VALID,20.5399,VALID,353,VALID,0.63125,
2011-01-21, 00:20:05,VALID,916.16,VALID,0,VALID,95.7425,VALID,0.107441,VALID,20.4993,VALID,353,VALID,0.498047,
2011-01-21, 00:21:05,VALID,916.133,VALID,0,VALID,95.8111,VALID,0,VALID,20.5383,VALID,353,VALID,0.597656,
2011-01-21, 00:22:05,VALID,916.105,VALID,0,VALID,95.895,VALID,0,VALID,20.5578,VALID,353,VALID,0.665234,
2011-01-21, 00:23:05,VALID,916.106,VALID,0,VALID,95.7501,VALID,0.107441,VALID,20.5399,VALID,354,VALID,1.09297,
2011-01-21, 00:24:05,VALID,916.094,VALID,0,VALID,95.773,VALID,0.107441,VALID,20.4993,VALID,353,VALID,0.595312,
2011-01-21, 00:25:05,VALID,916.11,VALID,0,VALID,95.773,VALID,0.107441,VALID,20.5399,VALID,353,VALID,0.363672,
2011-01-21, 00:26:05,VALID,916.059,VALID,0,VALID,95.834,VALID,0.107441,VALID,20.5399,VALID,353,VALID,0.853906,
2011-01-21, 00:27:05,VALID,916.06,VALID,0,VALID,95.9026,VALID,0,VALID,20.5204,VALID,353,VALID,0.488672,
2011-01-21, 00:28:05,VALID,916.055,VALID,0,VALID,95.8187,VALID,0.107441,VALID,20.5204,VALID,353,VALID,0.654297,
2011-01-21, 00:29:05,VALID,916.051,VALID,0,VALID,95.8035,VALID,0.107441,VALID,20.4798,VALID,353,VALID,0.495703,
2011-01-21, 00:30:05,VALID,916.016,VALID,0,VALID,95.8263,VALID,0.107441,VALID,20.4798,VALID,354,VALID,0.658203,
2011-01-21, 00:31:05,VALID,916.002,VALID,0,VALID,95.8416,VALID,0,VALID,20.4829,VALID,354,VALID,0.665625,
2011-01-21, 00:32:05,VALID,916.018,VALID,0,VALID,95.8568,VALID,0,VALID,20.4829,VALID,354,VALID,0.589844,
2011-01-21, 00:33:04,VALID,916.012,VALID,0,VALID,95.8873,VALID,0,VALID,20.4618,VALID,354,VALID,0.688672,
2011-01-21, 00:34:04,VALID,916.002,VALID,0,VALID,95.9788,VALID,0,VALID,20.4829,VALID,354,VALID,0.364844,
2011-01-21, 00:35:04,VALID,915.992,VALID,0,VALID,95.9026,VALID,0,VALID,20.4829,VALID,354,VALID,0.980469,
2011-01-21, 00:36:04,VALID,915.954,VALID,0,VALID,95.9407,VALID,0,VALID,20.4634,VALID,354,VALID,0.824219,
2011-01-21, 00:37:04,VALID,915.95,VALID,0,VALID,95.895,VALID,0,VALID,20.4439,VALID,354,VALID,0.988281,
2011-01-21, 00:38:04,VALID,915.924,VALID,0,VALID,95.9788,VALID,0,VALID,20.4845,VALID,354,VALID,1.12891,
2011-01-21, 00:39:04,VALID,915.915,VALID,0,VALID,96.0245,VALID,0,VALID,20.4439,VALID,355,VALID,0.812109,
2011-01-21, 00:40:04,VALID,915.9,VALID,0,VALID,96.0779,VALID,0,VALID,20.4829,VALID,355,VALID,0.492969,
2011-01-21, 00:41:04,VALID,915.876,VALID,0,VALID,96.0855,VALID,0,VALID,20.4813,VALID,355,VALID,0.455859,
2011-01-21, 00:42:04,VALID,915.895,VALID,0,VALID,96.0017,VALID,0,VALID,20.4829,VALID,355,VALID,0.35,
2011-01-21, 00:43:04,VALID,915.858,VALID,0,VALID,96.0703,VALID,0,VALID,20.4423,VALID,355,VALID,0,
2011-01-21, 00:44:04,VALID,915.865,VALID,0,VALID,96.1465,VALID,0,VALID,20.525,VALID,355,VALID,0,
2011-01-21, 00:45:04,VALID,915.838,VALID,0,VALID,96.0779,VALID,0,VALID,20.4408,VALID,355,VALID,0.254297,
2011-01-21, 00:46:04,VALID,915.854,VALID,0,VALID,96.1008,VALID,0,VALID,20.5235,VALID,355,VALID,0.148828,
2011-01-21, 00:47:04,VALID,915.849,VALID,0,VALID,96.055,VALID,0,VALID,20.4423,VALID,355,VALID,0,
2011-01-21, 00:48:04,VALID,915.849,VALID,0,VALID,96.0169,VALID,0,VALID,20.4634,VALID,355,VALID,0.000390625,
2011-01-21, 00:49:04,VALID,915.864,VALID,0,VALID,95.9788,VALID,0,VALID,20.4228,VALID,355,VALID,0.154687,
2011-01-21, 00:50:04,VALID,915.819,VALID,0,VALID,95.9559,VALID,0,VALID,20.4665,VALID,355,VALID,0.478516,
2011-01-21, 00:51:04,VALID,915.81,VALID,0,VALID,95.9712,VALID,0,VALID,20.4244,VALID,355,VALID,0.295312,
2011-01-21, 00:52:04,VALID,915.774,VALID,0,VALID,95.9712,VALID,0,VALID,20.4244,VALID,355,VALID,0.357812,
2011-01-21, 00:53:04,VALID,915.805,VALID,0,VALID,95.9559,VALID,0,VALID,20.4049,VALID,355,VALID,0.365625,
2011-01-21, 00:54:04,VALID,915.793,VALID,0,VALID,95.9407,VALID,0,VALID,20.3643,VALID,355,VALID,0.553125,
2011-01-21, 00:55:04,VALID,915.79,VALID,0,VALID,95.9712,VALID,0,VALID,20.3448,VALID,355,VALID,0.551953,
2011-01-21, 00:56:04,VALID,915.775,VALID,0,VALID,95.9636,VALID,0,VALID,20.3238,VALID,355,VALID,0.565625,
2011-01-21, 00:57:04,VALID,915.806,VALID,0,VALID,95.9788,VALID,0,VALID,20.3643,VALID,355,VALID,0.526563,
2011-01-21, 00:58:04,VALID,915.794,VALID,0,VALID,95.9712,VALID,0,VALID,20.3448,VALID,355,VALID,0.514844,
2011-01-21, 00:59:04,VALID,915.777,VALID,0,VALID,96.0017,VALID,0,VALID,20.3448,VALID,355,VALID,0.640625,
2011-01-21, 01:00:04,VALID,915.758,VALID,0,VALID,95.9864,VALID,0,VALID,20.3448,VALID,355,VALID,0.466016,
2011-01-21, 01:01:04,VALID,915.749,VALID,0,VALID,96.0245,VALID,0,VALID,20.3464,VALID,355,VALID,0.214453,
2011-01-21, 01:02:04,VALID,915.758,VALID,0,VALID,96.0855,VALID,0,VALID,20.3643,VALID,355,VALID,0.209375,
2011-01-21, 01:03:04,VALID,915.745,VALID,0,VALID,96.1236,VALID,0,VALID,20.3643,VALID,355,VALID,0.2625,
2011-01-21, 01:04:04,VALID,915.754,VALID,0,VALID,96.0245,VALID,0,VALID,20.3854,VALID,355,VALID,0.357031,
2011-01-21, 01:05:04,VALID,915.729,VALID,0,VALID,96.1084,VALID,0,VALID,20.3854,VALID,355,VALID,0.44375,
2011-01-21, 01:06:04,VALID,915.724,VALID,0,VALID,96.1084,VALID,0,VALID,20.4033,VALID,355,VALID,0.432813,
2011-01-21, 01:07:04,VALID,915.716,VALID,0,VALID,96.0322,VALID,0,VALID,20.3854,VALID,355,VALID,0.478906,
2011-01-21, 01:08:04,VALID,915.668,VALID,0,VALID,96.0627,VALID,0,VALID,20.3838,VALID,355,VALID,0.423047,
2011-01-21, 01:09:04,VALID,915.689,VALID,0,VALID,95.9559,VALID,0,VALID,20.3643,VALID,355,VALID,0.510547,
2011-01-21, 01:10:04,VALID,915.669,VALID,0,VALID,95.9712,VALID,0,VALID,20.3854,VALID,355,VALID,0.405859,
2011-01-21, 01:11:04,VALID,915.667,VALID,0,VALID,95.9178,VALID,0,VALID,20.3659,VALID,355,VALID,0.322266,
2011-01-21, 01:12:04,VALID,915.659,VALID,0,VALID,95.834,VALID,0,VALID,20.3448,VALID,355,VALID,0.259375,
2011-01-21, 01:13:04,VALID,915.642,VALID,0,VALID,95.8416,VALID,0,VALID,20.3253,VALID,355,VALID,0.150781,
2011-01-21, 01:14:04,VALID,915.625,VALID,0,VALID,95.8492,VALID,0,VALID,20.3448,VALID,355,VALID,0.096875,
2011-01-21, 01:15:04,VALID,915.648,VALID,0,VALID,95.8111,VALID,0,VALID,20.3433,VALID,355,VALID,0,
2011-01-21, 01:16:04,VALID,915.605,VALID,0,VALID,95.7577,VALID,0,VALID,20.3253,VALID,355,VALID,0,
2011-01-21, 01:17:04,VALID,915.614,VALID,0,VALID,95.7806,VALID,0,VALID,20.3464,VALID,355,VALID,0.116797,
2011-01-21, 01:18:04,VALID,915.616,VALID,0,VALID,95.7882,VALID,0,VALID,20.3027,VALID,355,VALID,0.269141,
2011-01-21, 01:19:04,VALID,915.6,VALID,0,VALID,95.8187,VALID,0,VALID,20.3643,VALID,355,VALID,0.387891,
2011-01-21, 01:20:04,VALID,915.609,VALID,0,VALID,95.8035,VALID,0,VALID,20.3433,VALID,355,VALID,0.512891,
2011-01-21, 01:21:04,VALID,915.549,VALID,0,VALID,95.7882,VALID,0,VALID,20.4259,VALID,355,VALID,0.500391,
2011-01-21, 01:22:04,VALID,915.555,VALID,0,VALID,95.8187,VALID,0,VALID,20.4033,VALID,355,VALID,0.560547,
2011-01-21, 01:23:04,VALID,915.556,VALID,0,VALID,95.8492,VALID,0,VALID,20.4259,VALID,355,VALID,0.380859,
2011-01-21, 01:24:04,VALID,915.544,VALID,0,VALID,95.8721,VALID,0,VALID,20.4259,VALID,355,VALID,0.4,
2011-01-21, 01:25:04,VALID,915.541,VALID,0,VALID,95.8187,VALID,0,VALID,20.3222,VALID,355,VALID,0.290625,
2011-01-21, 01:26:04,VALID,915.515,VALID,0.2,VALID,95.8873,VALID,0,VALID,20.4876,VALID,355,VALID,0.384766,
2011-01-21, 01:27:04,VALID,915.523,VALID,0,VALID,95.895,VALID,0,VALID,20.4259,VALID,355,VALID,0.473437,
2011-01-21, 01:28:04,VALID,915.491,VALID,0,VALID,95.9407,VALID,0,VALID,20.4049,VALID,355,VALID,0.219141,
2011-01-21, 01:29:04,VALID,915.489,VALID,0,VALID,95.9788,VALID,0,VALID,20.4049,VALID,355,VALID,0.289844,
2011-01-21, 01:30:04,VALID,915.455,VALID,0,VALID,95.9483,VALID,0,VALID,20.3238,VALID,355,VALID,0.444531,
2011-01-21, 01:31:04,VALID,915.451,VALID,0,VALID,95.9712,VALID,0,VALID,20.3643,VALID,355,VALID,0.455078,
2011-01-21, 01:32:04,VALID,915.436,VALID,0,VALID,95.9407,VALID,0,VALID,20.3464,VALID,355,VALID,0.493359,
2011-01-21, 01:33:04,VALID,915.399,VALID,0,VALID,95.9559,VALID,0,VALID,20.3674,VALID,355,VALID,0.528516,
2011-01-21, 01:34:04,VALID,915.398,VALID,0,VALID,95.9941,VALID,0,VALID,20.3058,VALID,355,VALID,0.480859,
2011-01-21, 01:35:04,VALID,915.392,VALID,0,VALID,95.9864,VALID,0,VALID,20.2863,VALID,355,VALID,0.535156,
2011-01-21, 01:36:04,VALID,915.367,VALID,0,VALID,95.9788,VALID,0,VALID,20.2863,VALID,355,VALID,0.575391,
2011-01-21, 01:37:04,VALID,915.346,VALID,0,VALID,95.9864,VALID,0,VALID,20.351,VALID,355,VALID,0.589844,
2011-01-21, 01:38:04,VALID,915.353,VALID,0,VALID,96.0474,VALID,0,VALID,20.2863,VALID,356,VALID,0.261328,
2011-01-21, 01:39:04,VALID,915.311,VALID,0,VALID,96.0703,VALID,0,VALID,20.2247,VALID,356,VALID,0.330078,
2011-01-21, 01:40:04,VALID,915.296,VALID,0,VALID,96.055,VALID,0,VALID,20.2668,VALID,145,VALID,1.02461,
2011-01-21, 01:41:04,VALID,915.27,VALID,0,VALID,96.0855,VALID,0,VALID,20.2473,VALID,145,VALID,0.817578,
2011-01-21, 01:42:04,VALID,915.275,VALID,0,VALID,96.1313,VALID,0,VALID,20.2473,VALID,109,VALID,0.926172,
2011-01-21, 01:43:04,VALID,915.23,VALID,0,VALID,96.1618,VALID,0,VALID,20.2699,VALID,109,VALID,0.847656,
2011-01-21, 01:44:04,VALID,915.24,VALID,0,VALID,96.1694,VALID,0,VALID,20.2083,VALID,109,VALID,0.694531,
2011-01-21, 01:45:04,VALID,915.233,VALID,0,VALID,96.1999,VALID,0,VALID,20.2489,VALID,109,VALID,0.564453,
2011-01-21, 01:46:04,VALID,915.223,VALID,0,VALID,96.2075,VALID,0,VALID,20.1873,VALID,109,VALID,0.965625,
2011-01-21, 01:47:04,VALID,915.202,VALID,0,VALID,96.2456,VALID,0,VALID,20.2293,VALID,109,VALID,0.833594,
2011-01-21, 01:48:04,VALID,915.214,VALID,0,VALID,96.2609,VALID,0,VALID,20.1678,VALID,109,VALID,0.782422,
2011-01-21, 01:49:04,VALID,915.216,VALID,0,VALID,96.2837,VALID,0,VALID,20.2114,VALID,109,VALID,0.559375,
2011-01-21, 01:50:04,VALID,915.189,VALID,0,VALID,96.3142,VALID,0,VALID,20.1888,VALID,109,VALID,0.584375,
2011-01-21, 01:51:04,VALID,915.174,VALID,0,VALID,96.3066,VALID,0,VALID,20.1498,VALID,109,VALID,0.748047,
2011-01-21, 01:52:04,VALID,915.144,VALID,0,VALID,96.3752,VALID,0,VALID,20.1678,VALID,109,VALID,0.793359,
2011-01-21, 01:53:04,VALID,915.104,VALID,0,VALID,96.3447,VALID,0,VALID,20.1919,VALID,109,VALID,0.987891,
2011-01-21, 01:54:04,VALID,915.133,VALID,0,VALID,96.3447,VALID,0,VALID,20.0882,VALID,109,VALID,0.989062,
2011-01-21, 01:55:04,VALID,915.087,VALID,0,VALID,96.3829,VALID,0,VALID,20.1303,VALID,109,VALID,0.706641,
2011-01-21, 01:56:04,VALID,915.08,VALID,0,VALID,96.421,VALID,0,VALID,20.2129,VALID,109,VALID,1.04531,
2011-01-21, 01:57:04,VALID,915.08,VALID,0,VALID,96.421,VALID,0,VALID,20.2129,VALID,110,VALID,1.06406,
2011-01-21, 01:58:04,VALID,915.019,VALID,0,VALID,96.4591,VALID,0,VALID,20.0898,VALID,111,VALID,1.19805,
2011-01-21, 01:59:04,VALID,915.037,VALID,0,VALID,96.4591,VALID,0,VALID,20.1708,VALID,106,VALID,1.37227,
2011-01-21, 02:00:04,VALID,915.038,VALID,0,VALID,96.4819,VALID,0,VALID,20.1934,VALID,94,VALID,1.02852,
2011-01-21, 02:01:04,VALID,915.032,VALID,0,VALID,96.4972,VALID,0,VALID,20.1303,VALID,106,VALID,0.794141,
2011-01-21, 02:02:04,VALID,915.026,VALID,0,VALID,96.5506,VALID,0,VALID,20.1498,VALID,106,VALID,0.424219,
2011-01-21, 02:03:04,VALID,915.024,VALID,0,VALID,96.5277,VALID,0,VALID,20.1093,VALID,106,VALID,0.535937,
2011-01-21, 02:04:04,VALID,914.998,VALID,0,VALID,96.5506,VALID,0,VALID,20.1513,VALID,106,VALID,0.617188,
2011-01-21, 02:05:04,VALID,915.023,VALID,0,VALID,96.5506,VALID,0,VALID,20.1303,VALID,106,VALID,0.598828,
2011-01-21, 02:06:04,VALID,914.993,VALID,0,VALID,96.5811,VALID,0,VALID,20.1288,VALID,106,VALID,0.163672,
2011-01-21, 02:07:04,VALID,914.982,VALID,0,VALID,96.6039,VALID,0,VALID,20.234,VALID,106,VALID,0.807813,
2011-01-21, 02:08:04,VALID,914.983,VALID,0,VALID,96.6115,VALID,0,VALID,20.1724,VALID,143,VALID,0.726172,
2011-01-21, 02:09:04,VALID,914.979,VALID,0,VALID,96.5811,VALID,0,VALID,20.1934,VALID,142,VALID,0.525391,
2011-01-21, 02:10:04,VALID,914.943,VALID,0,VALID,96.5811,VALID,0,VALID,20.1724,VALID,142,VALID,0.685938,
2011-01-21, 02:11:04,VALID,914.962,VALID,0,VALID,96.5887,VALID,0,VALID,20.1513,VALID,142,VALID,0.741406,
2011-01-21, 02:12:04,VALID,914.907,VALID,0,VALID,96.5811,VALID,0,VALID,20.1513,VALID,142,VALID,0.654297,
2011-01-21, 02:13:04,VALID,914.886,VALID,0,VALID,96.5963,VALID,0,VALID,20.1513,VALID,142,VALID,0.43125,
2011-01-21, 02:14:04,VALID,914.901,VALID,0,VALID,96.5963,VALID,0,VALID,20.1303,VALID,142,VALID,0.747656,
2011-01-21, 02:15:04,VALID,914.877,VALID,0,VALID,96.6192,VALID,0,VALID,20.1919,VALID,142,VALID,0.417188,
2011-01-21, 02:16:04,VALID,914.843,VALID,0,VALID,96.6039,VALID,0,VALID,20.1093,VALID,131,VALID,0.652734,
2011-01-21, 02:17:04,VALID,914.856,VALID,0,VALID,96.6344,VALID,0,VALID,20.2293,VALID,178,VALID,0.687891,
2011-01-21, 02:18:04,VALID,914.808,VALID,0,VALID,96.5811,VALID,0,VALID,20.1272,VALID,177,VALID,0.699609,
2011-01-21, 02:19:04,VALID,914.813,VALID,0,VALID,96.5887,VALID,0,VALID,20.1693,VALID,158,VALID,0.733203,
2011-01-21, 02:20:04,VALID,914.801,VALID,0,VALID,96.5811,VALID,0,VALID,20.1708,VALID,174,VALID,1.39609,
2011-01-21, 02:21:04,VALID,914.785,VALID,0,VALID,96.5963,VALID,0.107441,VALID,20.1077,VALID,173,VALID,0.700781,
2011-01-21, 02:22:04,VALID,914.797,VALID,0,VALID,96.5963,VALID,0.107441,VALID,20.2309,VALID,173,VALID,0.770703,
2011-01-21, 02:23:04,VALID,914.81,VALID,0,VALID,96.5811,VALID,0.107441,VALID,20.1498,VALID,173,VALID,1.1793,
2011-01-21, 02:24:04,VALID,914.768,VALID,0,VALID,96.6192,VALID,0,VALID,20.1903,VALID,180,VALID,1.18203,
2011-01-21, 02:25:04,VALID,914.764,VALID,0,VALID,96.6115,VALID,0,VALID,20.1498,VALID,176,VALID,1.025,
2011-01-21, 02:26:04,VALID,914.769,VALID,0,VALID,96.5811,VALID,0,VALID,20.1513,VALID,163,VALID,1.075,
2011-01-21, 02:27:04,VALID,914.762,VALID,0,VALID,96.642,VALID,0.107441,VALID,20.0882,VALID,163,VALID,1.24492,
2011-01-21, 02:28:04,VALID,914.784,VALID,0,VALID,96.6344,VALID,0.107441,VALID,20.1708,VALID,163,VALID,0.476172,
2011-01-21, 02:29:04,VALID,914.753,VALID,0,VALID,96.6192,VALID,0,VALID,20.0688,VALID,140,VALID,1.23789,
2011-01-21, 02:30:04,VALID,914.779,VALID,0,VALID,96.6192,VALID,0.107441,VALID,20.1318,VALID,152,VALID,0.812891,
2011-01-21, 02:31:04,VALID,914.763,VALID,0,VALID,96.6268,VALID,0,VALID,20.0718,VALID,163,VALID,0.848828,
2011-01-21, 02:32:04,VALID,914.753,VALID,0,VALID,96.6115,VALID,0,VALID,20.1123,VALID,164,VALID,0.713672,
2011-01-21, 02:33:04,VALID,914.726,VALID,0,VALID,96.5734,VALID,0,VALID,20.0913,VALID,131,VALID,0.809766,
2011-01-21, 02:34:04,VALID,914.737,VALID,0,VALID,96.5582,VALID,0,VALID,20.1123,VALID,131,VALID,0.978906,
2011-01-21, 02:35:04,VALID,914.734,VALID,0,VALID,96.5429,VALID,0,VALID,20.1123,VALID,129,VALID,0.663672,
2011-01-21, 02:36:04,VALID,914.702,VALID,0,VALID,96.5277,VALID,0,VALID,20.1123,VALID,129,VALID,1.21445,
2011-01-21, 02:37:04,VALID,914.724,VALID,0,VALID,96.5048,VALID,0,VALID,20.0703,VALID,107,VALID,1.19727,
2011-01-21, 02:38:04,VALID,914.711,VALID,0,VALID,96.4896,VALID,0,VALID,20.1934,VALID,107,VALID,0.944141,
2011-01-21, 02:39:04,VALID,914.72,VALID,0,VALID,96.4362,VALID,0,VALID,20.0718,VALID,156,VALID,0.685156,
2011-01-21, 02:40:04,VALID,914.713,VALID,0,VALID,96.421,VALID,0,VALID,20.1349,VALID,81,VALID,0.629297,
2011-01-21, 02:41:04,VALID,914.747,VALID,0,VALID,96.3981,VALID,0,VALID,20.1139,VALID,157,VALID,1.20469,
2011-01-21, 02:42:04,VALID,914.727,VALID,0,VALID,96.4057,VALID,0,VALID,20.1108,VALID,141,VALID,0.908984,
2011-01-21, 02:43:04,VALID,914.738,VALID,0,VALID,96.4057,VALID,0,VALID,20.1513,VALID,151,VALID,0.966016,
2011-01-21, 02:44:04,VALID,914.717,VALID,0,VALID,96.3524,VALID,0,VALID,20.1139,VALID,144,VALID,0.925,
2011-01-21, 02:45:04,VALID,914.717,VALID,0,VALID,96.3295,VALID,0,VALID,20.177,VALID,169,VALID,0.805078,
2011-01-21, 02:46:04,VALID,914.731,VALID,0,VALID,96.2761,VALID,0,VALID,20.1139,VALID,153,VALID,0.401563,
2011-01-21, 02:47:04,VALID,914.748,VALID,0,VALID,96.2075,VALID,0,VALID,20.0749,VALID,169,VALID,1.18164,
2011-01-21, 02:48:04,VALID,914.735,VALID,0,VALID,96.1313,VALID,0,VALID,20.0328,VALID,171,VALID,1.11992,
2011-01-21, 02:49:04,VALID,914.737,VALID,0,VALID,96.0627,VALID,0,VALID,20.0749,VALID,171,VALID,1.30078,
2011-01-21, 02:50:04,VALID,914.7,VALID,0,VALID,95.9559,VALID,0,VALID,20.0733,VALID,170,VALID,0.828516,
2011-01-21, 02:51:04,VALID,914.711,VALID,0,VALID,95.9026,VALID,0,VALID,20.0328,VALID,140,VALID,0.589844,
2011-01-21, 02:52:04,VALID,914.686,VALID,0,VALID,95.8492,VALID,0,VALID,20.1169,VALID,140,VALID,1.0918,
2011-01-21, 02:53:04,VALID,914.684,VALID,0,VALID,95.7425,VALID,0,VALID,20.0538,VALID,146,VALID,1.32656,
2011-01-21, 02:54:04,VALID,914.668,VALID,0,VALID,95.6815,VALID,0,VALID,20.0538,VALID,149,VALID,1.12656,
2011-01-21, 02:55:04,VALID,914.658,VALID,0,VALID,95.651,VALID,0,VALID,20.1169,VALID,149,VALID,0.679297,
2011-01-21, 02:56:04,VALID,914.658,VALID,0,VALID,95.5976,VALID,0,VALID,20.0328,VALID,151,VALID,1.125,
2011-01-21, 02:57:04,VALID,914.636,VALID,0,VALID,95.4375,VALID,0,VALID,20.0133,VALID,154,VALID,0.931641,
2011-01-21, 02:58:04,VALID,914.643,VALID,0,VALID,95.1555,VALID,0,VALID,19.9728,VALID,153,VALID,0.835938,
2011-01-21, 02:59:04,VALID,914.637,VALID,0,VALID,94.8734,VALID,0,VALID,20.0358,VALID,132,VALID,1.48555,
2011-01-21, 03:00:04,VALID,914.634,VALID,0,VALID,94.5075,VALID,0,VALID,20.0343,VALID,132,VALID,0.935938,
2011-01-21, 03:01:04,VALID,914.641,VALID,0,VALID,94.233,VALID,0,VALID,19.9923,VALID,123,VALID,1.31172,
2011-01-21, 03:02:04,VALID,914.633,VALID,0,VALID,94.0958,VALID,0,VALID,20.0959,VALID,144,VALID,1.25195,
2011-01-21, 03:03:04,VALID,914.621,VALID,0,VALID,94.1111,VALID,0,VALID,20.0328,VALID,142,VALID,0.896875,
2011-01-21, 03:04:04,VALID,914.595,VALID,0,VALID,94.1797,VALID,0,VALID,20.0133,VALID,142,VALID,0.761719,
2011-01-21, 03:05:04,VALID,914.552,VALID,0,VALID,94.2559,VALID,0,VALID,20.0553,VALID,136,VALID,1.31875,
2011-01-21, 03:06:04,VALID,914.561,VALID,0,VALID,94.3626,VALID,0,VALID,20.0374,VALID,139,VALID,1.09922,
2011-01-21, 03:07:04,VALID,914.556,VALID,0,VALID,94.3474,VALID,0,VALID,20.0148,VALID,140,VALID,0.721484,
2011-01-21, 03:08:04,VALID,914.56,VALID,0,VALID,94.3779,VALID,0,VALID,19.9548,VALID,141,VALID,1.20781,
2011-01-21, 03:09:04,VALID,914.528,VALID,0,VALID,94.4084,VALID,0,VALID,19.9953,VALID,141,VALID,1.25391,
2011-01-21, 03:10:04,VALID,914.511,VALID,0,VALID,94.3474,VALID,0,VALID,19.9968,VALID,133,VALID,1.30664,
2011-01-21, 03:11:04,VALID,914.528,VALID,0.2,VALID,94.2635,VALID,0,VALID,19.9968,VALID,150,VALID,1.71797,
2011-01-21, 03:12:04,VALID,914.522,VALID,0,VALID,94.1797,VALID,0,VALID,19.9143,VALID,145,VALID,1.35273,
2011-01-21, 03:13:04,VALID,914.516,VALID,0,VALID,93.8443,VALID,0,VALID,19.9773,VALID,142,VALID,1.58789,
2011-01-21, 03:14:04,VALID,914.504,VALID,0,VALID,93.768,VALID,0,VALID,19.9578,VALID,162,VALID,1.3332,
2011-01-21, 03:15:04,VALID,914.483,VALID,0,VALID,93.7223,VALID,0,VALID,20.0194,VALID,156,VALID,1.36328,
2011-01-21, 03:16:04,VALID,914.475,VALID,0,VALID,93.8366,VALID,0,VALID,19.9563,VALID,176,VALID,0.944141,
2011-01-21, 03:17:04,VALID,914.424,VALID,0,VALID,93.9586,VALID,0,VALID,19.9548,VALID,149,VALID,0.836328,
2011-01-21, 03:18:04,VALID,914.427,VALID,0,VALID,94.0958,VALID,0,VALID,19.9758,VALID,151,VALID,1.31055,
2011-01-21, 03:19:04,VALID,914.437,VALID,0,VALID,94.1721,VALID,0.107441,VALID,19.9743,VALID,144,VALID,1.14766,
2011-01-21, 03:20:04,VALID,914.419,VALID,0,VALID,94.3245,VALID,0.107441,VALID,19.9773,VALID,141,VALID,1.38359,
2011-01-21, 03:21:04,VALID,914.416,VALID,0,VALID,94.5532,VALID,0.107441,VALID,19.9128,VALID,132,VALID,1.15742,
2011-01-21, 03:22:04,VALID,914.417,VALID,0,VALID,94.7896,VALID,0,VALID,19.9338,VALID,178,VALID,0.753125,
2011-01-21, 03:23:04,VALID,914.416,VALID,0,VALID,94.942,VALID,0,VALID,19.9353,VALID,156,VALID,1.09687,
2011-01-21, 03:24:04,VALID,914.412,VALID,0,VALID,95.003,VALID,0,VALID,19.8723,VALID,141,VALID,1.08164,
2011-01-21, 03:25:04,VALID,914.395,VALID,0,VALID,95.125,VALID,0,VALID,19.8933,VALID,150,VALID,0.996094,
2011-01-21, 03:26:04,VALID,914.369,VALID,0,VALID,95.1631,VALID,0,VALID,19.8738,VALID,150,VALID,0.656641,
2011-01-21, 03:27:04,VALID,914.349,VALID,0,VALID,95.2088,VALID,0,VALID,19.9563,VALID,150,VALID,0.631641,
2011-01-21, 03:28:04,VALID,914.316,VALID,0,VALID,95.2622,VALID,0,VALID,19.9984,VALID,150,VALID,1.12539,
2011-01-21, 03:29:04,VALID,914.294,VALID,0,VALID,95.3003,VALID,0,VALID,19.9368,VALID,165,VALID,1.04062,
2011-01-21, 03:30:04,VALID,914.302,VALID,0,VALID,95.3156,VALID,0,VALID,19.9368,VALID,159,VALID,1.09297,
2011-01-21, 03:31:04,VALID,914.282,VALID,0,VALID,95.3079,VALID,0.107441,VALID,19.9158,VALID,165,VALID,1.27031,
2011-01-21, 03:32:04,VALID,914.253,VALID,0,VALID,95.3766,VALID,0.107441,VALID,19.9158,VALID,181,VALID,0.622656,
2011-01-21, 03:33:04,VALID,914.256,VALID,0,VALID,95.3994,VALID,0.107441,VALID,19.9758,VALID,155,VALID,0.282422,
2011-01-21, 03:34:04,VALID,914.245,VALID,0,VALID,95.4223,VALID,0.107441,VALID,19.9368,VALID,179,VALID,0.705469,
2011-01-21, 03:35:04,VALID,914.235,VALID,0,VALID,95.4452,VALID,0.107441,VALID,19.9368,VALID,145,VALID,0.514844,
2011-01-21, 03:36:04,VALID,914.229,VALID,0,VALID,95.5138,VALID,0,VALID,19.8948,VALID,163,VALID,1.01328,
2011-01-21, 03:37:04,VALID,914.243,VALID,0,VALID,95.5519,VALID,0.107441,VALID,19.8948,VALID,163,VALID,0.271875,
2011-01-21, 03:38:04,VALID,914.234,VALID,0,VALID,95.5595,VALID,0.107441,VALID,19.8753,VALID,163,VALID,0.644531,
2011-01-21, 03:39:04,VALID,914.288,VALID,0,VALID,95.5748,VALID,0,VALID,19.8753,VALID,163,VALID,0.339063,
2011-01-21, 03:40:04,VALID,914.304,VALID,0,VALID,95.5671,VALID,0,VALID,19.9173,VALID,163,VALID,0.750781,
2011-01-21, 03:41:04,VALID,914.324,VALID,0,VALID,95.5824,VALID,0.107441,VALID,19.8768,VALID,163,VALID,0.147266,
2011-01-21, 03:42:04,VALID,914.334,VALID,0,VALID,95.5519,VALID,0.107441,VALID,19.8768,VALID,163,VALID,0.412109,
2011-01-21, 03:43:04,VALID,914.322,VALID,0,VALID,95.5062,VALID,0.107441,VALID,19.8963,VALID,163,VALID,0.474609,